User: anonymous
Location: Unspecified
(0.0000°N, 0.0000°E)
Time: 19:58:07
(UTC+02:00)
Language:

Cosmos 2082 Rocket - Orbit

View from above orbital plane
View from above orbital plane
View from above satellite
View from above satellite

Ground track
Ground track

The orbit data is extracted from the following two-line orbital elements,

1 20625U 90046B   14292.70339669  .00000190  00000-0  12356-3 0  8488
2 20625 071.0012 027.9852 0012971 150.5001 316.2197 14.14535118260452
Epoch (UTC): 19 October 2014 16:52:53
Eccentricity: 0.0012971
inclination: 71.0012°
perigee height: 834 km
apogee height: 853 km
right ascension of ascending node: 27.9852°
argument of perigee: 150.5001°
revolutions per day: 14.14535118
mean anomaly at epoch: 316.2197°
orbit number at epoch: 26045

The dashed part of the orbit path shows where the satellite is in the earth's shadow,  

DLR